SCP
6 6 5 6 6 5 5 5 4 4 4 4 3 3 3 3 3 3 3 3 3 3 3 2 2 2 1 1 1 1 1 1 1 1 1 1 1 1 1 1 1 1 0
7 7 6 5 5 5 6 5 5 6 5 5 4 4 4 3 3 4 4 3 3 3 3 2 2 2 1 1 1 1 1 1 1 1 1 1 1 1 1 1 1 1 1
6 6 5 4 5 5 5 6 7 7 6 5 5 4 4 4 5 4 4 3 3 3 2 2 2 2 2 1 1 1 1 1 1 1 1 1 1 1 1 1 1 1 1
4 4 4 4 4 4 4 5 7 8 7 5 5 4 4 5 5 4 3 3 2 2 2 2 2 2 2 2 1 1 1 1 1 1 1 1 1 1 1 1 1 1 1
4 4 4 4 4 3 3 4 6 7 7 5 4 3 3 4 3 3 2 2 2 2 2 2 2 2 2 2 2 1 1 1 1 1 1 1 1 1 1 1 1 1 1
4 4 3 3 3 3 3 3 4 6 6 5 4 3 2 2 2 2 2 1 1 2 2 2 2 1 1 1 2 2 1 1 1 1 1 1 1 1 1 1 1 1 1
3 3 3 3 3 3 3 3 4 4 4 4 3 3 2 1 1 1 1 1 1 1 2 2 2 2 1 1 1 1 1 1 1 1 1 1 1 1 1 1 1 1 1
2 2 3 3 3 3 3 3 3 3 3 3 3 2 2 1 1 1 1 1 1 1 1 2 2 2 2 1 1 1 1 1 1 1 1 1 1 1 1 1 1 1 1
2 2 2 2 2 3 3 3 3 3 3 3 2 2 1 1 1 1 1 1 1 1 1 1 2 2 2 1 1 1 1 1 1 1 1 1 1 1 1 1 1 1 1
1 1 2 2 2 2 3 2 3 3 2 2 2 2 1 1 1 1 1 1 1 1 1 1 1 2 2 2 1 1 1 1 1 1 1 1 1 1 1 1 1 1 1
1 1 1 2 2 2 2 2 2 2 2 2 2 1 1 1 1 1 1 1 1 1 1 1 1 2 2 2 1 1 1 1 1 1 1 1 1 1 1 1 1 1 1
1 1 1 1 1 1 1 1 2 2 2 2 1 1 1 2 2 1 1 1 1 1 1 1 2 2 2 2 1 1 1 1 0 1 1 1 1 1 1 1 1 1 1
1 1 1 1 1 1 1 1 1 1 1 1 2 2 2 2 2 2 2 1 1 1 2 2 2 2 2 2 1 1 1 0 0 0 0 0 0 0 1 1 1 1 1
1 1 1 1 1 1 1 1 1 1 1 1 1 2 2 2 2 2 2 2 1 2 2 2 2 2 2 2 1 1 1 0 0 0 0 0 0 0 0 0 0 0 1
1 1 1 1 1 2 2 2 1 1 1 1 1 1 2 2 2 3 2 2 2 2 2 2 3 3 3 2 1 1 1 0 0 0 0 0 0 0 0 0 0 0 0
1 1 1 1 1 1 1 2 2 1 1 1 1 1 1 2 2 2 3 2 2 3 2 2 3 3 2 2 1 1 1 0 0 0 0 0 0 0 0 0 0 0 0
1 1 1 1 1 1 1 1 2 2 1 1 1 1 1 1 1 1 2 2 3 3 3 2 3 3 2 2 1 1 0 0 0 0 0 0 0 0 0 0 0 0 0
1 1 1 1 1 1 1 1 1 1 2 2 1 1 1 0 1 1 1 2 3 3 2 2 2 3 3 2 2 1 1 0 0 0 0 0 0 0 0 0 0 0 0
1 1 1 1 1 1 1 1 1 1 1 1 1 1 1 1 1 1 1 1 2 2 2 2 2 2 2 2 2 1 1 0 0 0 0 0 0 0 0 0 0 0 0
0 0 0 1 1 1 1 1 1 1 1 1 1 1 1 1 1 1 1 1 1 2 2 2 2 2 2 2 2 1 1 0 0 0 0 0 0 0 0 0 0 0 0
0 0 1 1 0 0 1 1 1 1 1 1 1 1 1 1 1 0 0 1 1 1 1 1 2 2 2 2 2 1 1 1 1 0 0 0 0 0 0 0 0 0 0
0 1 1 1 0 0 0 0 1 1 1 1 1 1 1 1 1 0 0 0 0 1 1 1 1 1 2 2 2 1 1 1 1 0 0 0 0 0 0 0 0 0 0
0 1 1 1 1 0 0 0 0 1 1 1 1 1 1 1 1 1 0 0 0 0 1 1 1 1 2 2 2 2 1 1 1 1 0 0 0 0 0 0 0 0 0
1 1 1 1 1 1 0 0 0 1 1 1 1 1 1 1 1 1 1 0 0 0 0 1 1 1 1 1 1 1 1 1 1 1 0 0 0 0 0 0 0 0 0
0 0 1 1 1 1 0 0 0 0 1 1 1 1 1 1 1 0 0 0 0 0 0 1 1 1 1 1 1 1 1 1 1 0 0 0 0 0 0 0 0 0 0
0 0 1 1 1 1 0 0 0 0 1 1 1 1 1 1 1 0 0 0 0 0 0 1 0 0 1 0 1 1 1 1 0 0 0 0 0 0 0 0 0 0 0
Wind_Speed
3 4 3 3 3 3 5 7 7 7 8 7 7 8 8 9 8 4 4 15 17 17 18 18 18 18 17 17 17 17 18 18 17 16 16 15 14 14 14 13 13 12 11
2 3 3 4 4 4 4 4 5 5 5 5 6 7 6 6 6 5 4 8 15 16 16 17 18 19 19 18 18 18 18 18 17 17 17 16 15 15 15 15 14 13 13
3 3 3 4 4 5 6 5 6 4 5 5 6 7 6 7 6 6 6 4 7 14 17 18 19 19 19 19 20 19 19 19 18 18 18 17 17 16 16 15 15 14 14
4 3 3 4 4 4 5 6 6 5 5 5 5 6 6 5 8 8 7 6 6 8 14 20 19 19 20 20 21 20 20 19 19 19 19 19 18 18 17 16 16 15 15
4 3 3 4 4 5 5 7 6 5 6 5 5 6 6 6 8 10 9 9 8 8 8 15 21 21 21 22 21 20 20 20 20 20 21 20 20 19 18 17 17 16 16
4 4 4 4 4 4 4 5 6 5 5 4 7 7 7 7 8 8 10 9 9 11 10 10 12 15 20 20 19 19 20 20 20 21 21 21 21 20 18 18 17 17 17
3 4 3 3 3 3 4 5 5 6 5 4 4 5 6 9 9 8 8 8 9 10 8 8 9 9 10 18 18 18 19 20 20 20 21 21 21 20 19 18 18 17 17
3 4 3 3 3 3 4 4 4 3 4 4 3 3 4 5 7 10 7 7 7 6 8 10 7 8 6 7 11 18 18 19 20 20 19 20 20 19 18 18 18 18 17
2 3 3 4 3 3 3 4 3 3 3 3 3 4 3 3 2 4 7 7 6 4 4 4 7 7 7 6 7 15 19 17 18 19 18 18 18 18 18 18 18 18 18
4 3 3 3 3 3 3 3 2 2 3 3 3 3 4 3 1 1 3 5 6 5 3 3 5 6 6 4 5 9 16 16 16 16 17 17 17 17 18 18 19 18 18
6 5 4 3 2 2 2 3 3 3 3 3 3 3 4 4 3 2 3 3 3 4 4 3 2 3 5 5 4 7 12 14 14 14 14 15 16 17 17 18 19 19 18
5 4 4 3 3 2 2 2 3 4 3 4 3 3 3 2 3 3 3 4 4 4 5 4 3 3 3 4 5 7 9 10 11 11 12 12 14 15 16 17 18 19 19
5 5 4 2 3 3 3 3 2 3 3 3 3 3 3 3 4 3 2 3 3 3 4 4 4 4 4 5 6 9 7 8 8 8 9 10 11 13 14 15 15 15 16
7 7 6 4 4 4 4 3 3 3 3 3 4 3 3 3 4 4 3 3 2 2 3 4 4 5 4 6 7 7 6 7 7 6 7 8 9 10 11 11 11 11 11
8 8 7 6 6 5 5 4 4 4 3 3 3 3 3 3 3 4 4 3 2 2 2 3 3 5 6 6 7 5 6 7 7 7 6 6 7 8 8 8 8 8 8
8 9 9 8 7 7 6 6 5 5 5 4 3 4 4 4 4 3 3 4 2 2 2 2 2 6 7 7 7 7 8 10 8 8 8 8 8 8 8 8 7 7 7
8 8 8 8 8 8 7 7 7 7 7 6 5 5 5 4 4 3 3 3 3 2 2 1 2 6 7 8 7 7 7 6 6 9 9 9 9 9 8 8 8 7 7
8 9 9 9 10 10 8 8 9 9 8 8 8 7 7 5 5 4 3 4 3 3 2 2 2 4 7 8 8 7 6 7 7 10 11 11 11 10 10 10 9 9 8
9 9 9 10 10 10 9 9 9 9 9 9 8 8 8 7 6 5 5 4 4 4 3 3 3 3 5 6 8 7 8 6 7 9 11 11 12 12 11 11 11 11 10
9 9 10 10 10 10 10 10 10 10 9 9 9 9 8 8 8 7 5 5 5 5 5 4 4 4 5 6 7 7 6 5 6 6 7 8 11 13 12 12 12 12 11
12 10 10 10 10 10 11 11 10 12 10 9 9 9 9 10 11 9 6 5 5 5 5 5 5 5 5 7 7 6 7 6 5 6 6 5 6 6 7 9 11 12 12
10 10 10 11 11 12 13 12 8 8 8 9 9 9 10 9 11 12 11 9 7 6 6 5 6 7 8 7 7 8 8 8 5 5 6 5 5 5 5 5 9 12 12
10 10 11 11 11 11 14 14 13 8 9 8 9 8 10 11 12 10 11 11 9 9 8 5 6 7 7 9 9 10 9 8 5 7 6 5 5 6 6 7 11 11 12
9 10 11 11 11 12 14 15 14 11 10 9 9 8 9 8 8 9 10 10 9 8 9 7 6 5 4 6 8 9 9 7 6 5 5 6 6 6 7 6 9 11 11
10 10 11 11 11 11 13 14 13 9 9 10 10 10 9 9 9 10 8 8 8 7 10 11 9 6 6 7 7 7 9 9 8 5 4 5 7 7 6 5 6 10 10
10 10 10 10 10 10 11 13 13 9 9 8 7 8 11 9 10 11 8 7 7 6 6 7 7 7 7 8 11 10 10 10 9 6 5 6 9 6 5 4 4 5 6
Wind_Direction
249 267 285 292 266 229 216 222 227 219 219 223 228 223 222 224 241 249 182 182 186 189 191 193 199 206 209 210 210 209 209 208 204 202 202 204 204 203 201 199 197 194 194
274 281 286 287 288 287 281 253 245 235 230 229 228 231 233 237 238 245 221 193 194 198 199 201 205 209 212 213 213 211 211 210 207 205 205 206 206 205 205 204 202 198 196
309 296 282 275 271 276 281 277 269 254 240 236 236 235 234 235 241 238 235 204 205 205 210 212 209 210 213 215 215 214 212 210 207 206 206 207 207 207 207 205 204 202 199
318 303 284 274 266 260 261 267 264 257 245 235 235 242 235 230 237 236 230 214 215 217 213 215 214 213 214 216 217 216 214 210 207 206 206 207 208 210 210 206 206 204 201
321 304 287 283 282 266 254 257 254 245 248 240 237 238 237 226 231 231 222 221 222 223 212 209 213 213 215 217 218 217 214 211 208 206 208 209 210 212 212 209 208 206 204
319 309 286 284 288 276 263 253 255 251 249 242 250 246 233 225 222 221 219 218 221 223 215 207 203 213 215 216 216 216 215 212 210 208 208 210 212 212 211 210 209 209 207
318 294 298 305 289 284 274 263 257 250 243 233 244 256 251 235 225 219 214 217 218 215 211 200 191 196 207 216 215 214 215 213 210 209 209 210 212 211 211 211 210 210 210
318 305 316 294 292 293 289 287 269 258 249 215 211 235 249 237 226 216 203 209 222 216 205 201 187 184 185 187 210 214 216 215 213 210 210 210 210 209 208 209 211 210 210
283 289 292 286 289 283 286 283 269 262 263 255 223 227 236 246 226 218 205 202 199 213 207 189 181 176 186 182 190 207 213 214 215 213 211 209 208 208 206 208 210 210 210
271 253 254 269 285 287 285 286 272 260 259 267 265 249 253 281 256 257 217 197 183 191 208 211 189 173 176 175 174 182 200 207 211 214 212 208 205 205 206 208 210 210 210
260 240 230 226 252 274 290 294 291 274 265 255 258 269 268 271 253 223 222 200 183 181 188 199 195 156 162 164 164 167 183 195 202 208 210 208 206 205 206 209 212 213 213
267 247 225 207 218 242 267 279 284 279 271 260 248 260 264 258 264 251 225 203 193 194 181 175 172 157 145 131 136 143 163 180 190 198 203 205 205 204 206 209 214 217 216
308 305 298 247 236 231 239 252 263 278 276 261 248 249 263 272 275 272 263 249 211 189 165 160 160 154 149 122 122 132 139 159 174 185 193 199 200 201 202 205 211 215 218
294 292 296 285 263 243 243 234 245 251 258 255 259 256 264 273 276 284 277 271 260 205 166 168 152 149 133 123 133 140 132 143 151 160 172 185 191 193 195 197 203 209 215
296 305 318 304 286 266 249 237 238 244 246 242 250 254 254 265 273 279 283 278 244 230 199 175 142 137 124 115 145 130 118 122 132 137 142 149 158 163 169 176 183 190 196
285 282 279 279 275 266 252 236 232 230 229 232 229 242 252 258 266 273 280 285 279 252 237 201 161 143 135 132 133 114 112 109 103 116 120 125 132 138 144 149 156 164 171
292 290 286 282 279 273 263 248 237 230 225 227 227 223 227 237 250 265 268 273 277 275 259 250 141 140 131 128 125 125 130 113 98 99 107 110 112 117 123 126 130 135 137
289 287 283 280 276 273 265 255 246 240 225 222 220 219 220 222 225 239 248 250 256 253 243 229 159 145 142 135 136 134 127 114 106 99 99 100 101 104 108 111 112 114 115
285 282 279 276 274 272 270 266 258 249 236 228 219 216 213 209 216 217 226 233 239 241 227 213 191 157 145 141 134 125 115 114 112 113 101 95 96 98 99 102 104 105 104
286 282 278 274 271 268 266 263 261 254 245 236 229 221 213 207 208 205 214 219 221 227 218 211 196 173 159 151 141 139 134 131 129 123 103 103 101 96 96 100 103 104 104
285 283 283 279 274 269 260 252 248 253 247 239 233 228 221 211 208 202 205 200 204 212 212 204 199 183 170 165 163 157 147 135 125 132 128 128 120 107 99 99 101 106 106
285 282 279 278 274 271 271 268 260 260 259 247 237 229 230 216 208 202 200 192 190 200 208 207 201 194 188 175 163 159 151 151 149 155 143 138 134 115 104 92 105 109 109
290 285 280 275 270 265 265 264 259 255 256 250 240 230 233 226 200 196 198 197 200 205 205 203 209 203 185 181 170 166 167 167 150 154 140 126 114 97 88 95 109 111 111
288 285 280 276 271 266 257 248 245 245 251 245 236 226 226 240 219 195 192 198 203 203 205 207 212 210 195 181 176 170 160 144 125 140 140 124 122 109 101 98 106 112 114
289 285 280 274 270 266 256 245 233 242 240 240 234 225 217 220 220 202 195 197 199 203 210 212 204 200 191 188 173 160 158 156 149 150 144 122 129 117 109 108 109 113 116
289 288 285 280 273 266 257 240 222 234 236 234 229 226 218 215 206 200 199 198 200 200 194 195 196 193 190 187 183 175 169 165 153 150 164 136 147 139 124 122 132 137 121